QPF
0.00 0.00 0.00 0.00 0.00 0.00 0.00 0.00 0.00 0.00 0.00 0.00 0.00 0.00 0.00 0.00 0.00 0.00 0.00 0.01 0.01 0.02 0.02 0.04 0.06 0.09 0.11 0.14 0.15 0.16 0.18 0.15 0.09 0.07 0.08 0.10 0.09 0.08 0.07 0.06 0.05 0.04 0.05 0.05
0.00 0.00 0.00 0.00 0.00 0.00 0.00 0.00 0.00 0.00 0.00 0.00 0.00 0.00 0.00 0.00 0.00 0.00 0.00 0.01 0.01 0.02 0.02 0.04 0.06 0.07 0.08 0.10 0.14 0.16 0.21 0.19 0.11 0.06 0.05 0.07 0.08 0.08 0.07 0.06 0.06 0.05 0.06 0.05
0.00 0.00 0.00 0.00 0.00 0.00 0.00 0.00 0.00 0.00 0.00 0.00 0.00 0.00 0.00 0.00 0.00 0.00 0.01 0.01 0.02 0.02 0.02 0.05 0.06 0.05 0.06 0.07 0.11 0.14 0.20 0.19 0.14 0.09 0.08 0.07 0.06 0.06 0.06 0.05 0.05 0.05 0.05 0.04
0.00 0.00 0.00 0.00 0.00 0.00 0.00 0.00 0.00 0.00 0.00 0.00 0.00 0.00 0.00 0.00 0.00 0.00 0.00 0.00 0.00 0.01 0.03 0.05 0.06 0.06 0.06 0.06 0.12 0.15 0.16 0.15 0.13 0.10 0.08 0.07 0.06 0.05 0.05 0.04 0.05 0.05 0.04 0.03
0.00 0.00 0.00 0.00 0.00 0.00 0.00 0.00 0.00 0.00 0.00 0.00 0.00 0.00 0.00 0.00 0.00 0.00 0.00 0.00 0.00 0.01 0.05 0.06 0.06 0.06 0.07 0.07 0.10 0.12 0.14 0.12 0.12 0.11 0.09 0.10 0.08 0.07 0.06 0.05 0.05 0.05 0.04 0.03
0.00 0.00 0.00 0.00 0.00 0.00 0.00 0.00 0.00 0.00 0.00 0.00 0.00 0.00 0.00 0.00 0.00 0.00 0.00 0.00 0.00 0.01 0.02 0.03 0.06 0.07 0.07 0.07 0.08 0.09 0.10 0.10 0.10 0.11 0.10 0.09 0.07 0.05 0.04 0.04 0.04 0.04 0.04 0.02
0.00 0.00 0.00 0.00 0.00 0.00 0.00 0.00 0.00 0.00 0.00 0.00 0.00 0.00 0.00 0.00 0.00 0.00 0.00 0.01 0.01 0.01 0.01 0.01 0.03 0.05 0.05 0.06 0.07 0.07 0.06 0.06 0.07 0.08 0.07 0.07 0.06 0.06 0.04 0.04 0.03 0.03 0.02 0.02
0.00 0.00 0.00 0.00 0.00 0.00 0.00 0.00 0.00 0.00 0.00 0.00 0.00 0.00 0.00 0.00 0.00 0.00 0.00 0.00 0.00 0.00 0.00 0.01 0.02 0.03 0.03 0.04 0.05 0.06 0.06 0.05 0.04 0.04 0.04 0.05 0.05 0.05 0.04 0.04 0.03 0.02 0.02 0.02
0.00 0.00 0.00 0.00 0.00 0.00 0.00 0.00 0.00 0.00 0.00 0.00 0.00 0.00 0.00 0.00 0.00 0.00 0.00 0.00 0.00 0.00 0.01 0.02 0.02 0.02 0.01 0.02 0.04 0.03 0.04 0.04 0.03 0.03 0.03 0.04 0.03 0.03 0.04 0.03 0.03 0.03 0.03 0.03
0.00 0.00 0.00 0.00 0.00 0.00 0.00 0.00 0.00 0.00 0.00 0.01 0.00 0.00 0.00 0.00 0.00 0.00 0.00 0.00 0.00 0.00 0.00 0.01 0.01 0.01 0.01 0.02 0.03 0.02 0.02 0.03 0.03 0.03 0.02 0.02 0.02 0.03 0.04 0.04 0.03 0.03 0.03 0.03
0.00 0.00 0.00 0.00 0.00 0.00 0.00 0.00 0.00 0.00 0.00 0.00 0.01 0.00 0.00 0.00 0.00 0.00 0.00 0.00 0.00 0.00 0.00 0.00 0.00 0.01 0.01 0.01 0.02 0.02 0.02 0.02 0.03 0.02 0.02 0.02 0.02 0.02 0.03 0.03 0.03 0.03 0.03 0.03
0.01 0.00 0.00 0.00 0.00 0.00 0.00 0.00 0.00 0.00 0.00 0.00 0.01 0.00 0.00 0.00 0.00 0.00 0.00 0.00 0.00 0.00 0.00 0.00 0.00 0.01 0.01 0.01 0.01 0.01 0.01 0.01 0.01 0.02 0.02 0.03 0.02 0.02 0.02 0.03 0.03 0.03 0.03 0.03
0.01 0.01 0.01 0.01 0.01 0.00 0.00 0.00 0.00 0.00 0.00 0.00 0.01 0.01 0.00 0.00 0.00 0.00 0.00 0.00 0.00 0.00 0.00 0.00 0.00 0.01 0.01 0.01 0.01 0.01 0.00 0.00 0.01 0.01 0.02 0.02 0.02 0.02 0.01 0.02 0.03 0.02 0.02 0.02
0.00 0.01 0.00 0.01 0.00 0.00 0.00 0.00 0.00 0.00 0.01 0.01 0.00 0.00 0.00 0.00 0.00 0.00 0.00 0.00 0.00 0.00 0.00 0.00 0.00 0.01 0.01 0.02 0.02 0.01 0.00 0.01 0.01 0.02 0.02 0.02 0.02 0.01 0.01 0.02 0.02 0.02 0.02 0.02
0.01 0.01 0.00 0.00 0.00 0.00 0.00 0.00 0.00 0.00 0.00 0.00 0.00 0.01 0.00 0.00 0.00 0.00 0.00 0.00 0.00 0.00 0.00 0.00 0.00 0.01 0.01 0.02 0.02 0.01 0.02 0.05 0.04 0.03 0.02 0.02 0.02 0.02 0.02 0.02 0.02 0.02 0.02 0.02
0.01 0.00 0.00 0.00 0.00 0.00 0.00 0.00 0.00 0.00 0.00 0.00 0.00 0.00 0.00 0.00 0.00 0.00 0.00 0.00 0.00 0.00 0.00 0.00 0.00 0.00 0.00 0.01 0.02 0.01 0.02 0.05 0.06 0.04 0.03 0.03 0.02 0.02 0.01 0.02 0.02 0.02 0.02 0.02
0.01 0.01 0.01 0.01 0.00 0.00 0.00 0.00 0.00 0.00 0.00 0.00 0.00 0.00 0.00 0.00 0.00 0.00 0.00 0.00 0.00 0.00 0.00 0.00 0.00 0.00 0.00 0.00 0.00 0.00 0.01 0.01 0.04 0.06 0.04 0.03 0.02 0.01 0.01 0.01 0.02 0.01 0.02 0.01
0.01 0.02 0.02 0.01 0.01 0.01 0.00 0.00 0.00 0.00 0.00 0.00 0.00 0.00 0.00 0.00 0.00 0.00 0.00 0.00 0.00 0.00 0.00 0.00 0.00 0.00 0.00 0.00 0.00 0.00 0.00 0.01 0.01 0.05 0.05 0.03 0.02 0.01 0.01 0.01 0.01 0.01 0.01 0.01
0.01 0.01 0.02 0.02 0.01 0.01 0.01 0.00 0.01 0.01 0.01 0.01 0.00 0.00 0.00 0.00 0.00 0.00 0.00 0.00 0.00 0.00 0.00 0.00 0.00 0.00 0.00 0.00 0.00 0.00 0.00 0.01 0.01 0.02 0.03 0.02 0.01 0.01 0.01 0.01 0.01 0.01 0.01 0.01
0.01 0.01 0.02 0.02 0.02 0.01 0.02 0.01 0.00 0.02 0.03 0.01 0.01 0.01 0.01 0.01 0.01 0.01 0.01 0.00 0.00 0.00 0.00 0.01 0.00 0.01 0.01 0.00 0.00 0.01 0.01 0.01 0.02 0.02 0.02 0.02 0.01 0.01 0.01 0.01 0.01 0.01 0.01 0.01
0.02 0.02 0.03 0.03 0.03 0.02 0.02 0.00 0.02 0.05 0.05 0.02 0.01 0.01 0.01 0.01 0.01 0.01 0.01 0.01 0.00 0.00 0.00 0.00 0.01 0.01 0.01 0.00 0.00 0.00 0.00 0.01 0.02 0.03 0.03 0.03 0.02 0.02 0.02 0.02 0.01 0.01 0.01 0.01
0.03 0.03 0.03 0.03 0.03 0.03 0.01 0.02 0.05 0.05 0.03 0.01 0.01 0.01 0.01 0.01 0.01 0.01 0.01 0.01 0.01 0.01 0.00 0.00 0.00 0.01 0.01 0.01 0.01 0.01 0.01 0.01 0.02 0.03 0.02 0.03 0.03 0.03 0.03 0.03 0.03 0.03 0.02 0.01
0.03 0.04 0.03 0.03 0.03 0.02 0.00 0.01 0.04 0.04 0.02 0.01 0.01 0.01 0.01 0.01 0.01 0.01 0.01 0.01 0.01 0.01 0.01 0.01 0.01 0.01 0.01 0.01 0.01 0.02 0.02 0.02 0.02 0.02 0.02 0.02 0.03 0.03 0.03 0.03 0.04 0.04 0.03 0.03
0.02 0.02 0.04 0.04 0.03 0.03 0.02 0.01 0.02 0.02 0.02 0.01 0.01 0.01 0.01 0.02 0.01 0.01 0.01 0.01 0.01 0.01 0.01 0.02 0.02 0.01 0.01 0.01 0.01 0.02 0.02 0.02 0.02 0.02 0.03 0.03 0.04 0.04 0.04 0.04 0.05 0.05 0.05 0.04
0.01 0.03 0.04 0.04 0.05 0.06 0.06 0.03 0.01 0.01 0.01 0.01 0.01 0.01 0.01 0.01 0.02 0.02 0.02 0.02 0.02 0.03 0.03 0.03 0.02 0.02 0.01 0.02 0.02 0.02 0.02 0.03 0.03 0.03 0.03 0.04 0.04 0.04 0.04 0.05 0.05 0.06 0.06 0.06
0.01 0.02 0.04 0.05 0.04 0.05 0.05 0.04 0.02 0.02 0.02 0.02 0.03 0.02 0.02 0.02 0.02 0.02 0.02 0.02 0.01 0.02 0.02 0.03 0.02 0.02 0.02 0.02 0.02 0.02 0.02 0.03 0.03 0.03 0.03 0.03 0.03 0.04 0.05 0.06 0.07 0.07 0.08 0.08
MSLP
1007.73 1008.07 1008.27 1008.35 1008.35 1008.29 1008.21 1008.13 1008.05 1007.95 1007.83 1007.68 1007.50 1007.31 1007.14 1007.02 1006.99 1007.07 1007.25 1007.52 1007.82 1008.14 1008.41 1008.63 1008.80 1008.92 1009.05 1009.22 1009.48 1009.83 1010.31 1010.88 1011.51 1012.15 1012.77 1013.33 1013.82 1014.22 1014.57 1014.87 1015.15 1015.42 1015.71 1015.99
1007.88 1008.12 1008.23 1008.23 1008.16 1008.08 1008.01 1007.97 1007.94 1007.90 1007.84 1007.73 1007.58 1007.40 1007.24 1007.13 1007.11 1007.19 1007.39 1007.66 1007.98 1008.29 1008.55 1008.73 1008.83 1008.87 1008.91 1009.00 1009.18 1009.50 1009.96 1010.55 1011.22 1011.93 1012.62 1013.25 1013.80 1014.24 1014.60 1014.91 1015.18 1015.45 1015.73 1016.02
1007.78 1007.95 1007.97 1007.90 1007.81 1007.73 1007.69 1007.70 1007.75 1007.79 1007.79 1007.74 1007.63 1007.47 1007.32 1007.21 1007.19 1007.29 1007.49 1007.79 1008.12 1008.43 1008.68 1008.83 1008.87 1008.85 1008.81 1008.81 1008.92 1009.18 1009.61 1010.20 1010.90 1011.67 1012.43 1013.13 1013.74 1014.24 1014.65 1014.97 1015.26 1015.53 1015.82 1016.12
1007.46 1007.55 1007.51 1007.42 1007.33 1007.28 1007.31 1007.41 1007.55 1007.68 1007.76 1007.77 1007.69 1007.55 1007.39 1007.27 1007.24 1007.33 1007.54 1007.84 1008.18 1008.51 1008.76 1008.90 1008.92 1008.85 1008.74 1008.68 1008.71 1008.91 1009.30 1009.88 1010.59 1011.39 1012.21 1012.98 1013.66 1014.23 1014.68 1015.05 1015.37 1015.66 1015.96 1016.27
1006.95 1007.00 1006.94 1006.86 1006.81 1006.83 1006.96 1007.17 1007.41 1007.64 1007.80 1007.85 1007.80 1007.65 1007.47 1007.31 1007.25 1007.30 1007.49 1007.79 1008.15 1008.49 1008.77 1008.92 1008.95 1008.87 1008.73 1008.62 1008.61 1008.75 1009.10 1009.64 1010.35 1011.16 1012.01 1012.83 1013.57 1014.20 1014.71 1015.12 1015.47 1015.79 1016.11 1016.43
1006.35 1006.38 1006.35 1006.31 1006.33 1006.46 1006.71 1007.03 1007.39 1007.71 1007.94 1008.02 1007.96 1007.79 1007.56 1007.34 1007.20 1007.21 1007.36 1007.64 1008.00 1008.38 1008.70 1008.90 1008.97 1008.92 1008.80 1008.68 1008.64 1008.75 1009.04 1009.54 1010.22 1011.01 1011.87 1012.71 1013.48 1014.15 1014.70 1015.15 1015.54 1015.88 1016.21 1016.54
1005.75 1005.79 1005.80 1005.84 1005.97 1006.21 1006.58 1007.02 1007.48 1007.88 1008.14 1008.24 1008.16 1007.94 1007.63 1007.33 1007.11 1007.04 1007.14 1007.39 1007.76 1008.18 1008.56 1008.84 1008.99 1009.02 1008.96 1008.88 1008.84 1008.92 1009.18 1009.62 1010.24 1010.99 1011.81 1012.64 1013.41 1014.09 1014.66 1015.14 1015.54 1015.89 1016.23 1016.57
1005.19 1005.27 1005.35 1005.48 1005.71 1006.07 1006.55 1007.09 1007.62 1008.07 1008.36 1008.45 1008.33 1008.05 1007.66 1007.26 1006.96 1006.81 1006.85 1007.08 1007.45 1007.91 1008.37 1008.76 1009.03 1009.17 1009.21 1009.19 1009.19 1009.27 1009.49 1009.88 1010.43 1011.10 1011.85 1012.63 1013.36 1014.02 1014.59 1015.06 1015.46 1015.82 1016.15 1016.49
1004.69 1004.82 1004.97 1005.19 1005.52 1005.98 1006.54 1007.14 1007.72 1008.19 1008.48 1008.55 1008.39 1008.05 1007.59 1007.12 1006.74 1006.52 1006.51 1006.72 1007.11 1007.61 1008.16 1008.66 1009.06 1009.34 1009.50 1009.58 1009.64 1009.74 1009.94 1010.27 1010.73 1011.32 1011.98 1012.66 1013.33 1013.95 1014.48 1014.94 1015.33 1015.68 1016.00 1016.33
1004.21 1004.41 1004.63 1004.93 1005.34 1005.86 1006.46 1007.10 1007.68 1008.14 1008.42 1008.46 1008.27 1007.89 1007.39 1006.87 1006.45 1006.18 1006.14 1006.34 1006.75 1007.30 1007.92 1008.53 1009.06 1009.48 1009.77 1009.96 1010.10 1010.23 1010.42 1010.70 1011.09 1011.57 1012.13 1012.72 1013.30 1013.85 1014.34 1014.77 1015.15 1015.49 1015.82 1016.14
1003.74 1003.99 1004.29 1004.65 1005.11 1005.65 1006.25 1006.87 1007.43 1007.86 1008.10 1008.12 1007.92 1007.54 1007.04 1006.53 1006.10 1005.83 1005.78 1005.97 1006.39 1006.97 1007.65 1008.35 1008.99 1009.52 1009.94 1010.24 1010.46 1010.64 1010.83 1011.08 1011.39 1011.79 1012.25 1012.74 1013.24 1013.73 1014.18 1014.58 1014.95 1015.29 1015.62 1015.96
1003.26 1003.58 1003.93 1004.33 1004.80 1005.33 1005.90 1006.46 1006.96 1007.34 1007.55 1007.56 1007.38 1007.03 1006.58 1006.11 1005.72 1005.47 1005.44 1005.64 1006.05 1006.64 1007.34 1008.08 1008.79 1009.41 1009.92 1010.32 1010.61 1010.85 1011.06 1011.29 1011.57 1011.89 1012.27 1012.69 1013.13 1013.56 1013.98 1014.38 1014.75 1015.11 1015.46 1015.82
1002.79 1003.18 1003.58 1004.01 1004.48 1004.96 1005.46 1005.94 1006.36 1006.67 1006.84 1006.85 1006.70 1006.42 1006.05 1005.67 1005.35 1005.16 1005.15 1005.34 1005.74 1006.31 1006.99 1007.72 1008.45 1009.11 1009.68 1010.15 1010.52 1010.81 1011.06 1011.30 1011.56 1011.85 1012.18 1012.54 1012.94 1013.34 1013.75 1014.16 1014.55 1014.94 1015.33 1015.72
1002.39 1002.85 1003.31 1003.76 1004.20 1004.63 1005.04 1005.42 1005.74 1005.97 1006.10 1006.11 1006.01 1005.80 1005.54 1005.26 1005.03 1004.91 1004.92 1005.11 1005.46 1005.97 1006.58 1007.27 1007.96 1008.62 1009.22 1009.73 1010.15 1010.51 1010.81 1011.08 1011.36 1011.64 1011.96 1012.31 1012.68 1013.08 1013.49 1013.92 1014.35 1014.78 1015.21 1015.64
1002.12 1002.66 1003.18 1003.65 1004.06 1004.43 1004.74 1005.00 1005.21 1005.36 1005.44 1005.45 1005.39 1005.27 1005.11 1004.95 1004.81 1004.74 1004.77 1004.93 1005.21 1005.62 1006.14 1006.73 1007.35 1007.97 1008.56 1009.09 1009.57 1009.99 1010.35 1010.69 1011.01 1011.32 1011.65 1012.01 1012.39 1012.79 1013.22 1013.67 1014.13 1014.60 1015.07 1015.54
1002.02 1002.65 1003.22 1003.71 1004.11 1004.41 1004.63 1004.78 1004.88 1004.94 1004.97 1004.97 1004.94 1004.89 1004.82 1004.74 1004.68 1004.65 1004.68 1004.79 1004.99 1005.28 1005.67 1006.13 1006.65 1007.21 1007.77 1008.32 1008.84 1009.33 1009.77 1010.19 1010.57 1010.94 1011.31 1011.69 1012.09 1012.50 1012.95 1013.41 1013.89 1014.38 1014.87 1015.35
1002.10 1002.80 1003.43 1003.95 1004.33 1004.58 1004.72 1004.77 1004.77 1004.74 1004.71 1004.69 1004.67 1004.67 1004.66 1004.65 1004.64 1004.63 1004.64 1004.68 1004.77 1004.93 1005.18 1005.51 1005.92 1006.39 1006.92 1007.48 1008.05 1008.61 1009.14 1009.65 1010.12 1010.57 1010.99 1011.40 1011.81 1012.24 1012.68 1013.14 1013.62 1014.11 1014.59 1015.06
1002.30 1003.07 1003.74 1004.28 1004.66 1004.87 1004.95 1004.92 1004.83 1004.73 1004.64 1004.59 1004.57 1004.58 1004.61 1004.63 1004.64 1004.63 1004.59 1004.56 1004.54 1004.57 1004.68 1004.87 1005.17 1005.58 1006.07 1006.64 1007.26 1007.89 1008.52 1009.13 1009.69 1010.22 1010.70 1011.15 1011.58 1012.00 1012.43 1012.87 1013.32 1013.77 1014.23 1014.66
1002.55 1003.35 1004.05 1004.61 1004.98 1005.17 1005.21 1005.12 1004.98 1004.82 1004.68 1004.60 1004.57 1004.58 1004.62 1004.65 1004.65 1004.61 1004.52 1004.41 1004.28 1004.19 1004.17 1004.25 1004.45 1004.78 1005.25 1005.83 1006.49 1007.20 1007.92 1008.62 1009.28 1009.88 1010.42 1010.91 1011.36 1011.77 1012.18 1012.58 1012.99 1013.39 1013.79 1014.18
1002.76 1003.56 1004.27 1004.83 1005.20 1005.38 1005.40 1005.29 1005.11 1004.92 1004.75 1004.65 1004.61 1004.61 1004.64 1004.66 1004.64 1004.56 1004.42 1004.22 1004.00 1003.80 1003.66 1003.64 1003.75 1004.03 1004.47 1005.05 1005.74 1006.51 1007.31 1008.09 1008.83 1009.51 1010.11 1010.63 1011.09 1011.51 1011.89 1012.26 1012.62 1012.98 1013.33 1013.66
1002.91 1003.67 1004.35 1004.89 1005.25 1005.43 1005.45 1005.34 1005.16 1004.97 1004.80 1004.69 1004.65 1004.65 1004.67 1004.68 1004.63 1004.51 1004.30 1004.03 1003.72 1003.43 1003.19 1003.07 1003.11 1003.32 1003.72 1004.29 1004.99 1005.79 1006.64 1007.48 1008.29 1009.02 1009.67 1010.24 1010.73 1011.15 1011.53 1011.88 1012.22 1012.54 1012.86 1013.16
1002.99 1003.68 1004.31 1004.81 1005.16 1005.33 1005.36 1005.27 1005.12 1004.95 1004.82 1004.73 1004.70 1004.71 1004.73 1004.72 1004.65 1004.48 1004.23 1003.89 1003.51 1003.13 1002.80 1002.59 1002.54 1002.68 1003.02 1003.55 1004.23 1005.02 1005.88 1006.75 1007.59 1008.37 1009.06 1009.67 1010.19 1010.65 1011.05 1011.42 1011.77 1012.09 1012.41 1012.70
1003.08 1003.67 1004.22 1004.67 1004.98 1005.15 1005.19 1005.14 1005.03 1004.92 1004.83 1004.79 1004.80 1004.83 1004.86 1004.85 1004.76 1004.56 1004.27 1003.87 1003.43 1002.97 1002.56 1002.26 1002.11 1002.16 1002.41 1002.86 1003.48 1004.22 1005.05 1005.90 1006.74 1007.53 1008.26 1008.90 1009.48 1009.99 1010.44 1010.86 1011.26 1011.63 1011.99 1012.32
1003.28 1003.76 1004.20 1004.57 1004.83 1004.98 1005.03 1005.01 1004.96 1004.91 1004.89 1004.92 1004.98 1005.06 1005.11 1005.11 1005.02 1004.81 1004.49 1004.05 1003.55 1003.02 1002.53 1002.14 1001.90 1001.83 1001.97 1002.30 1002.81 1003.46 1004.20 1005.00 1005.80 1006.58 1007.31 1007.99 1008.62 1009.19 1009.72 1010.23 1010.71 1011.16 1011.60 1012.01
1003.66 1004.02 1004.34 1004.61 1004.80 1004.91 1004.96 1004.97 1004.97 1004.99 1005.05 1005.15 1005.28 1005.41 1005.52 1005.55 1005.47 1005.27 1004.93 1004.48 1003.94 1003.36 1002.80 1002.32 1001.97 1001.78 1001.78 1001.97 1002.33 1002.84 1003.47 1004.16 1004.89 1005.62 1006.34 1007.04 1007.71 1008.35 1008.96 1009.56 1010.15 1010.71 1011.25 1011.75
1004.27 1004.49 1004.69 1004.84 1004.94 1004.99 1005.01 1005.03 1005.08 1005.16 1005.30 1005.48 1005.69 1005.89 1006.06 1006.14 1006.10 1005.93 1005.61 1005.16 1004.60 1004.00 1003.39 1002.84 1002.39 1002.09 1001.95 1001.98 1002.18 1002.53 1003.01 1003.57 1004.19 1004.85 1005.52 1006.21 1006.90 1007.59 1008.27 1008.96 1009.64 1010.31 1010.95 1011.55
Thickness
5771 5765 5765 5773 5779 5781 5779 5776 5775 5783 5793 5787 5786 5789 5795 5795 5792 5788 5786 5782 5777 5773 5771 5767 5762 5758 5754 5750 5746 5744 5742 5740 5739 5737 5736 5734 5734 5735 5736 5736 5734 5734 5734 5733
5758 5759 5775 5779 5777 5773 5771 5767 5772 5781 5787 5784 5784 5787 5795 5793 5790 5789 5786 5781 5777 5771 5767 5762 5758 5755 5751 5747 5745 5743 5740 5739 5738 5737 5736 5735 5735 5735 5736 5735 5732 5732 5732 5731
5756 5770 5777 5770 5766 5763 5766 5766 5770 5772 5779 5784 5779 5780 5787 5790 5789 5787 5786 5783 5780 5773 5766 5760 5755 5752 5750 5747 5745 5743 5741 5738 5736 5735 5734 5733 5731 5732 5732 5731 5731 5730 5730 5730
5759 5772 5767 5763 5763 5764 5760 5776 5773 5770 5766 5772 5774 5765 5783 5786 5780 5780 5781 5781 5779 5774 5768 5762 5756 5752 5750 5749 5747 5743 5739 5738 5736 5734 5733 5732 5730 5730 5731 5731 5730 5728 5728 5728
5756 5765 5761 5758 5766 5769 5769 5776 5772 5770 5767 5767 5772 5765 5781 5783 5776 5780 5782 5782 5780 5775 5770 5763 5758 5755 5752 5750 5746 5742 5738 5736 5734 5733 5732 5730 5730 5730 5730 5729 5727 5726 5726 5727
5765 5772 5770 5770 5775 5775 5774 5768 5766 5767 5767 5751 5766 5761 5769 5783 5782 5786 5786 5784 5780 5776 5771 5765 5760 5755 5752 5750 5746 5742 5737 5734 5733 5732 5731 5730 5729 5728 5727 5726 5724 5725 5726 5726
5749 5760 5771 5776 5765 5768 5766 5754 5744 5742 5746 5752 5769 5761 5771 5789 5793 5790 5788 5786 5782 5776 5770 5764 5758 5754 5750 5747 5745 5742 5737 5733 5732 5731 5730 5729 5728 5727 5726 5726 5725 5726 5727 5726
5738 5743 5762 5769 5766 5763 5762 5760 5744 5735 5741 5756 5761 5759 5779 5792 5793 5792 5790 5787 5782 5776 5772 5766 5761 5756 5752 5748 5745 5742 5737 5734 5732 5730 5729 5728 5727 5727 5728 5727 5729 5728 5729 5728
5745 5746 5765 5770 5774 5770 5759 5760 5773 5758 5756 5749 5760 5769 5781 5788 5787 5787 5786 5783 5779 5776 5773 5768 5764 5759 5755 5751 5747 5744 5739 5735 5732 5730 5729 5727 5727 5728 5728 5728 5728 5729 5727 5727
5756 5744 5756 5764 5767 5767 5771 5770 5760 5751 5735 5734 5750 5758 5767 5774 5779 5782 5781 5780 5779 5777 5774 5770 5766 5762 5758 5755 5751 5747 5742 5737 5734 5732 5730 5729 5728 5728 5727 5727 5727 5727 5726 5725
5756 5742 5746 5752 5751 5755 5756 5757 5759 5759 5756 5741 5737 5755 5783 5779 5780 5780 5781 5782 5780 5778 5776 5772 5768 5764 5760 5757 5753 5748 5744 5740 5736 5734 5732 5731 5730 5729 5727 5726 5726 5725 5724 5723
5749 5746 5741 5748 5759 5764 5761 5760 5757 5743 5742 5749 5747 5758 5786 5782 5783 5782 5781 5781 5780 5779 5778 5774 5770 5765 5760 5757 5754 5750 5747 5743 5740 5737 5734 5732 5731 5729 5727 5726 5726 5725 5724 5723
5743 5735 5724 5728 5737 5747 5750 5755 5757 5754 5749 5747 5743 5756 5779 5780 5779 5779 5778 5778 5776 5775 5775 5773 5769 5764 5760 5758 5755 5752 5749 5746 5743 5740 5736 5733 5731 5730 5729 5728 5726 5725 5724 5723
5744 5735 5732 5728 5737 5747 5743 5747 5750 5747 5741 5744 5749 5759 5768 5770 5770 5773 5775 5775 5774 5772 5770 5769 5766 5763 5761 5758 5755 5753 5750 5749 5745 5741 5738 5735 5733 5732 5731 5730 5727 5725 5724 5723
5737 5730 5735 5742 5748 5748 5744 5744 5746 5744 5748 5746 5754 5758 5762 5764 5765 5768 5771 5771 5770 5768 5767 5766 5763 5762 5760 5757 5755 5753 5751 5749 5746 5742 5738 5736 5735 5733 5731 5730 5728 5726 5724 5723
5727 5724 5728 5728 5737 5739 5736 5741 5743 5744 5747 5749 5751 5752 5762 5763 5764 5763 5765 5766 5766 5765 5765 5765 5763 5761 5759 5758 5755 5754 5752 5749 5746 5742 5739 5737 5735 5733 5731 5729 5727 5725 5723 5722
5720 5716 5714 5718 5728 5725 5721 5735 5737 5739 5744 5744 5741 5747 5754 5752 5752 5755 5758 5761 5763 5764 5764 5763 5763 5762 5761 5759 5758 5754 5752 5749 5745 5741 5739 5737 5735 5732 5730 5729 5727 5724 5722 5721
5708 5707 5709 5712 5709 5696 5724 5739 5738 5734 5736 5741 5741 5743 5745 5746 5750 5754 5757 5757 5759 5762 5764 5763 5763 5763 5762 5761 5759 5756 5753 5749 5745 5742 5740 5738 5735 5732 5730 5728 5726 5723 5722 5720
5704 5700 5701 5701 5698 5705 5716 5724 5726 5721 5720 5730 5730 5733 5738 5744 5746 5749 5753 5755 5756 5759 5763 5764 5764 5764 5763 5761 5759 5756 5753 5749 5746 5743 5741 5739 5736 5733 5730 5728 5725 5723 5721 5719
5694 5696 5695 5692 5687 5689 5705 5717 5723 5717 5706 5719 5722 5723 5728 5733 5732 5739 5746 5750 5753 5756 5759 5761 5763 5763 5761 5760 5759 5755 5753 5750 5747 5746 5743 5741 5738 5735 5731 5729 5726 5723 5720 5718
5681 5681 5685 5684 5683 5694 5705 5712 5714 5695 5695 5709 5714 5716 5719 5721 5724 5731 5739 5742 5746 5750 5754 5756 5758 5758 5758 5758 5756 5753 5752 5750 5749 5747 5743 5740 5738 5735 5731 5728 5725 5722 5719 5716
5680 5680 5678 5682 5677 5679 5699 5702 5696 5693 5701 5704 5707 5712 5714 5718 5723 5727 5731 5734 5739 5743 5747 5750 5751 5751 5753 5753 5751 5749 5748 5750 5748 5745 5742 5739 5736 5734 5731 5726 5722 5720 5717 5713
5678 5679 5684 5682 5680 5686 5694 5692 5693 5695 5694 5697 5701 5706 5709 5712 5716 5720 5722 5726 5731 5735 5739 5742 5744 5744 5746 5747 5747 5744 5745 5745 5744 5742 5738 5736 5733 5731 5729 5725 5720 5717 5713 5712
5670 5674 5674 5674 5678 5681 5685 5687 5688 5689 5689 5693 5697 5701 5704 5706 5710 5713 5715 5719 5722 5727 5731 5734 5736 5737 5738 5741 5741 5741 5741 5740 5738 5736 5734 5731 5728 5726 5724 5722 5720 5716 5714 5711
5663 5667 5667 5666 5670 5673 5676 5677 5678 5681 5685 5688 5692 5695 5698 5700 5703 5705 5708 5710 5714 5717 5722 5726 5728 5729 5731 5734 5734 5736 5736 5735 5732 5730 5728 5727 5725 5723 5720 5717 5715 5714 5713 5711
5658 5658 5659 5658 5663 5664 5664 5668 5672 5674 5676 5680 5684 5687 5691 5694 5696 5698 5701 5703 5706 5710 5714 5717 5720 5722 5724 5726 5727 5728 5730 5729 5727 5724 5722 5722 5721 5718 5715 5711 5707 5702 5701 5698